Location: Rowland
(34.5359°N, 79.2929°W)
Time: 15:39:13
(UTC+00:00)

SR - Pass Details

Date: 12 October 2022
Orbit: 577 x 875 km, 66.7° (Epoch: 28 November)

Event Time Altitude Azimuth Distance (km) Brightness Sun altitude
Rises 00:48:34 0° 244° (WSW) 3,434 ? -25.7°
Reaches altitude 10° 00:51:37 10° 259° (W) 2,517 ? -26.3°
Maximum altitude 00:56:04 22° 308° (NW) 1,821 ? -27.2°
Drops below altitude 10° 01:00:31 10° 358° (N) 2,511 ? -28.1°
Sets 01:03:35 0° 13° (NNE) 3,425 ? -28.7°
